, NM

(GMT )
Holloman AFB

Weather History for KHMN - June, 2013

Change the Weather History Date:

Saturday, June 29, 2013

  Actual Average Record
Temperature  
Mean Temperature 84 °F -  
Max Temperature 99 °F 92 °F 105 °F (1998)
Min Temperature 69 °F 65 °F 60 °F (2010)
Cooling Degree Days 19    
Growing Degree Days 34 (Base 50)    
Moisture  
Dew Point 41 °F    
Average Humidity 21    
Maximum Humidity 36    
Minimum Humidity 11    
Precipitation  
Precipitation 0.00 in - - ()
Sea Level Pressure  
Sea Level Pressure 29.86 in    
Wind  
Wind Speed 8 mph (NW)    
Max Wind Speed 26 mph    
Max Gust Speed 31 mph    
Visibility 10 miles    
Events      
Averages and records for this station are not official NWS values.
T = Trace of Precipitation, MM = Missing Value Source: NWS Daily Summary

Daily Weather History Graph

Daily Weather History Graph

Search for Another Location

Airport or City:

Trip Planner

Search our weather history database for the weather conditions in past years. The results will help you decide how hot, cold, wet, or windy it might be!

Date:

Astronomy

Jun. 29, 2013 Rise Set
Actual Time 5:59 AM MDT 8:16 PM MDT
Civil Twilight 5:30 AM MDT 8:45 PM MDT
Nautical Twilight 4:55 AM MDT 9:20 PM MDT
Astronomical Twilight 4:17 AM MDT 9:58 PM MDT
Moon 12:09 AM MDT (6/29) 12:49 PM MDT (6/29)
Length of Visible Light 15h 14m
Length of Day
14h 17m
Waning Gibbous, 55% of the Moon is Illuminated
Jun 29
Waning Gibbous
Jun 29
Last Quarter
Jul 8
New
Jul 15
First Quarter
Jul 22
Full

Hourly Weather History & Observations

Time (MDT) Temp. Dew Point Humidity Pressure Visibility Wind Dir Wind Speed Gust Speed Precip Events Conditions
12:22 AM 80.6 °F 41.0 °F 24% 30.12 in 10.0 mi NW 16.1 mph 18.4 mph N/A   Clear
12:58 AM 83.5 °F 43.2 °F 24% 29.86 in 10.0 mi North 5.8 mph - N/A   Clear
1:58 AM 77.5 °F 42.6 °F 29% 29.87 in 10.0 mi East 4.6 mph - N/A   Clear
2:58 AM 74.7 °F 42.4 °F 31% 29.86 in 10.0 mi WSW 3.5 mph - N/A   Clear
3:58 AM 72.9 °F 43.0 °F 34% 29.86 in 10.0 mi NNW 3.5 mph - N/A   Clear
4:58 AM 70.5 °F 42.4 °F 36% 29.87 in 10.0 mi NNE 4.6 mph - N/A   Clear
5:58 AM 69.4 °F 40.3 °F 35% 29.88 in 10.0 mi East 5.8 mph - N/A   Scattered Clouds
6:58 AM 71.2 °F 41.2 °F 34% 29.91 in 10.0 mi East 4.6 mph - N/A   Clear
7:58 AM 75.2 °F 42.3 °F 31% 29.91 in 10.0 mi SE 3.5 mph - N/A   Clear
8:58 AM 83.8 °F 44.2 °F 25% 29.91 in 10.0 mi SW 3.5 mph - N/A   Clear
9:58 AM 89.1 °F 44.2 °F 21% 29.88 in 10.0 mi West 5.8 mph - N/A   Clear
10:58 AM 92.7 °F 43.0 °F 18% 29.88 in 10.0 mi West 2.3 mph - N/A   Clear
11:58 AM 96.6 °F 42.1 °F 15% 29.86 in 10.0 mi Variable 4.6 mph - N/A   Partly Cloudy
12:58 PM 95.2 °F 42.6 °F 16% 29.86 in 10.0 mi North 8.1 mph - N/A   Partly Cloudy
1:58 PM 94.1 °F 38.7 °F 14% 29.84 in 10.0 mi East 26.5 mph 31.1 mph N/A   Scattered Clouds
2:58 PM 97.9 °F 38.3 °F 13% 29.80 in 10.0 mi NE 9.2 mph - N/A   Clear
3:58 PM 98.1 °F 39.9 °F 13% 29.79 in 9.0 mi NW 10.4 mph - N/A   Clear
4:32 PM 96.8 °F 39.2 °F 14% 30.01 in 10.0 mi NNW 12.7 mph - N/A   Clear
4:58 PM 97.3 °F 39.4 °F 13% 29.76 in 10.0 mi NW 8.1 mph - N/A   Clear
5:58 PM 99.1 °F 36.7 °F 11% 29.74 in 10.0 mi SSW 6.9 mph - N/A   Clear
6:59 PM 97.9 °F 35.6 °F 11% 29.73 in 10.0 mi WSW 3.5 mph - N/A   Clear
7:59 PM 95.7 °F 36.1 °F 12% 29.73 in 10.0 mi South 3.5 mph - N/A   Partly Cloudy
8:58 PM 92.1 °F 35.2 °F 13% 29.75 in 10.0 mi ENE 8.1 mph - N/A   Scattered Clouds
9:18 PM 93.2 °F 35.6 °F 13% 30.00 in 10.0 mi SSE 13.8 mph 25.3 mph N/A   Partly Cloudy
9:33 PM 91.4 °F 41.0 °F 17% 30.02 in 10.0 mi South 15.0 mph 29.9 mph N/A   Partly Cloudy
9:58 PM 90.9 °F 41.0 °F 18% 29.77 in 10.0 mi SSW 15.0 mph - N/A   Clear
10:58 PM 90.1 °F 41.9 °F 19% 29.82 in 10.0 mi WNW 13.8 mph - N/A   Partly Cloudy
11:58 PM 85.1 °F 47.5 °F 27% 29.83 in 10.0 mi North 6.9 mph 20.7 mph N/A   Partly Cloudy